This demonstration page uses our WeatherBlox Daily Observations layout. Learn more.

Left ArrowRight Arrow

39.29038, -76.61219

Hourly Observations for January 30, 2017

Temp ( °F °C ) Dew Point ( °F °C ) Humidity (%) Winds ( mph kmh ) Pressure ( in mb ) Visibility ( mi km ) Precip ( " mm )
12:54 am 00:54 undefined 36 2.2 26 -3.3 67 67 undefined N/A 29.74 1007 N/A 0.00 0.00
1:54 am 01:54 undefined 36 2.2 26 -3.3 67 67 undefined N/A 29.74 1007 N/A 0.00 0.00
2:54 am 02:54 undefined 37 2.8 24 -4.4 59 59 undefined N/A 29.74 1007 N/A 0.00 0.00
3:54 am 03:54 undefined 36 2.2 22 -5.6 57 57 undefined N/A 29.76 1008 N/A 0.00 0.00
4:54 am 04:54 undefined 36 2.2 19 -7.2 50 50 undefined N/A 29.77 1008 N/A 0.00 0.00
5:54 am 05:54 undefined 36 2.2 18 -7.8 48 48 undefined N/A 29.78 1008 N/A 0.00 0.00
6:54 am 06:54 undefined 35 1.7 18 -7.8 50 50 undefined N/A 29.79 1009 N/A 0.00 0.00
7:54 am 07:54 undefined 35 1.7 17 -8.3 48 48 undefined N/A 29.81 1010 N/A 0.00 0.00
8:54 am 08:54 undefined 35 1.7 17 -8.3 48 48 undefined N/A 29.84 1011 N/A 0.00 0.00
9:54 am 09:54 undefined 37 2.8 17 -8.3 44 44 undefined N/A 29.86 1011 N/A 0.00 0.00
10:54 am 10:54 undefined 38 3.3 16 -8.9 41 41 undefined N/A 29.87 1011 N/A 0.00 0.00
11:54 am 11:54 undefined 37 2.8 18 -7.8 46 46 undefined N/A 29.86 1011 N/A 0.00 0.00
12:54 pm 12:54 undefined 36 2.2 26 -3.3 67 67 undefined N/A 29.85 1011 N/A 0.01 0.25
1:54 pm 13:54 undefined 32 0 23 -5 69 69 undefined N/A 29.87 1011 N/A 0.01 0.25
2:54 pm 14:54 undefined 37 2.8 16 -8.9 42 42 undefined N/A 29.86 1011 N/A 0.00 0.00
3:54 pm 15:54 undefined 35 1.7 19 -7.2 52 52 undefined N/A 29.89 1012 N/A 0.00 0.00
4:54 pm 16:54 undefined 36 2.2 11 -11.7 35 35 undefined N/A 29.91 1013 N/A 0.00 0.00
5:54 pm 17:54 undefined 35 1.7 13 -10.6 40 40 undefined N/A 29.95 1014 N/A 0.00 0.00
6:54 pm 18:54 undefined 34 1.1 11 -11.7 38 38 undefined N/A 29.99 1016 N/A 0.00 0.00
7:54 pm 19:54 undefined 33 0.6 12 -11.1 42 42 undefined N/A 30.03 1017 N/A 0.00 0.00
8:54 pm 20:54 undefined 33 0.6 9 -12.8 36 36 undefined N/A 30.04 1017 N/A 0.00 0.00
9:54 pm 21:54 undefined 32 0 10 -12.2 40 40 undefined N/A 30.04 1017 N/A 0.00 0.00
10:54 pm 22:54 undefined 31 -0.6 11 -11.7 43 43 undefined N/A 30.03 1017 N/A 0.00 0.00
11:54 pm 23:54 undefined 31 -0.6 12 -11.1 45 45 undefined N/A 29.99 1016 N/A 0.00 0.00

Powered by AerisWeather